Other Public Products
Issued by NWS Grand Forks, ND

Home | Current Version | Previous Version | Graphics & Text | Print | Product List | Glossary On
Versions: 1 2 3 4 5 6 7 8 9 10 11 12 13 14 15 16 17 18 19 20 21 22 23 24 25 26 27 28 29 30 31 32 33 34 35 36 37 38 39 40 41 42 43 44 45 46 47 48 49 50
000
FPUS83 KFGF 311910
OPUFGF
PRAIRIE TO PINES WEATHER ROUNDUP
NATIONAL WEATHER SERVICE EASTERN NORTH DAKOTA/GRAND FORKS ND
200 PM CDT FRI JUL 31 2015

 **SATELLITE DATA USED TO AUGMENT SKY COVER AT AUTOMATED STATIONS**
 *****  WEATHER ACROSS EASTERN NORTH DAKOTA  *****

CITY           SKY/WX    TMP DP  RH WIND       PRES   REMARKS
GRAND FORKS    MOSUNNY   80  49  33 NW15G30   30.03F
GRAND FORKS AF SUNNY     80  50  36 NW16G22   30.04F
GRAND CITY NWS   N/A     81 N/A N/A NW7         N/A
BUXTON         NOT AVBL
DEVILS LAKE    SUNNY     79  52  38 W14G21    30.07F
FARGO          SUNNY     82  51  34 NW16      30.06F
WAHPETON ARPT  CLEAR     81  45  28 NW14G21   30.08F
$$

 *****  WEATHER ACROSS CENTRAL AND WESTERN NORTH DAKOTA  *****

CITY           SKY/WX    TMP DP  RH WIND       PRES   REMARKS
JAMESTOWN      SUNNY     80  52  37 W9        30.09F
BISMARCK       SUNNY     88  52  29 NW9G20    30.10F
MINOT          SUNNY     81  50  33 NW10G21   30.10S
MINOT AFB      SUNNY     83  50  32 NW13      30.09F
GARRISON         N/A     80  56  43 NW12      30.11F
WILLISTON      SUNNY     85  47  26 VRB6      30.13F
DICKINSON      SUNNY     86  41  20 N7        30.14F
HETTINGER      SUNNY     88  39  17 NW6       30.18F
$$

 *****  OTHER OBSERVATIONS NORTHEAST NORTH DAKOTA  *****

CITY           SKY/WX    TMP DP  RH WIND       PRES   REMARKS
WALHALLA       FAIR      77  50  38 MISG      30.02F
LANGDON        FAIR      79  50  36 NW16      30.07F
CAVALIER       FAIR      77  50  38 NW18G26   30.02F
GRAFTON        FAIR      79  52  38 W18       30.03F
CANDO          NOT AVBL
FORT TOTTEN      N/A     80  56  43 N3        29.95S
ROLLA            N/A     73  52  46 NW14G22   30.11S
RUGBY          NOT AVBL
 ***** THE ABOVE OBSERVATIONS ARE NON NWS ARE NOT QUALITY
        CONTROLLED AND MAY MIS-REPORT RAIN FOR SNOW...
$$

 *****  OTHER OBSERVATIONS SOUTHEAST NORTH DAKOTA *****

CITY           SKY/WX    TMP DP  RH WIND       PRES   REMARKS
COOPERSTOWN    NOT AVBL
VALLEY CITY    FAIR      81  54  39 NW12      30.10F
OAKES            N/A     82  55  39 W7        30.11S
GWINNER        FAIR      81  54  39 W9        30.10F
SHEYENNE NWR     N/A     82  53  36 NW9       29.95S
BUFFALO        NOT AVBL
WYNDMERE       NOT AVBL
 ***** THE ABOVE OBSERVATIONS ARE NON NWS ARE NOT QUALITY
       CONTROLLED AND MAY MIS-REPORT RAIN FOR SNOW...
$$

  *****  WEATHER ACROSS NORTHERN MINNESOTA  *****

CITY           SKY/WX    TMP DP  RH WIND       PRES   REMARKS
FLAG ISLAND    MOSUNNY   72  54  53 NW16      29.92F
WARROAD        SUNNY     75  54  46 W18G26    29.97S
ROSEAU         SUNNY     75  55  50 NW16G24   29.98S
HALLOCK        SUNNY     79  46  31 NW15G24   30.00F
THF RVR FALLS  MOSUNNY   77  48  36 W17G24    30.03S
HALSTAD        NOT AVBL
FOSSTON          N/A     75  50  41 W16G22    30.05F
BAUDETTE       MOSUNNY   74  53  48 NW16      29.95F
WASKISH        MOSUNNY   75  57  53 W13G23    29.98F
CROOKSTON      SUNNY     79  50  36 NW20G26   30.03F
$$
  *****  WEATHER ACROSS CENTRAL AND WEST MINNESOTA  *****

CITY           SKY/WX    TMP DP  RH WIND       PRES   REMARKS
BEMIDJI        PTSUNNY   76  50  40 NW20G37   30.02F
PARK RAPIDS    MOSUNNY   79  49  34 W21       30.05S
WADENA         SUNNY     79  48  34 NW14G22   30.06F
DETROIT LAKES  SUNNY     77  48  36 NW18G25   30.08F
MOORHEAD       SUNNY     79  54  41 NW13G22   30.07F
FERGUS FALLS   SUNNY     79  54  41 N13G18    30.07F
ELBOW LAKE     FAIR      77  53  43 NW12      30.08F
MORRIS MN      SUNNY     81  54  39 NW12      30.09F
STAPLES        SUNNY     77  45  31 NW16      30.06F
WHEATON        SUNNY     79  54  41 W7        30.11S
$$
  *****  WEATHER ELSEWHERE ACROSS MINNESOTA  *****

CITY           SKY/WX    TMP DP  RH WIND       PRES   REMARKS
DULUTH         MOSUNNY   76  52  43 NW18G28   29.95F
INTRNTL FALLS  PTSUNNY   74  54  49 W15G30    29.93S
ELY            PTSUNNY   63  57  82 CALM      29.94R
CLOQUET        MOSUNNY   75  48  38 W16G23    29.98S
BRAINERD       SUNNY     79  47  32 NW18G24   30.04F
HIBBING        MOSUNNY   74  50  42 NW18G30   29.95F
ALEXANDRIA     SUNNY     78  52  40 NW13G23   30.10F
SAINT CLOUD    SUNNY     80  49  33 NW22G30   30.05F
MINNEAPOLIS    MOSUNNY   81  50  33 NW17G33   30.04F
$$

  *****  WEATHER ACROSS SOUTH DAKOTA  *****

CITY           SKY/WX    TMP DP  RH WIND       PRES   REMARKS
SIOUX FALLS    MOSUNNY   83  58  42 E5        30.13F
BROOKINGS      SUNNY     81  52  36 NE6       30.15F
WATERTOWN      SUNNY     81  53  37 NW7       30.13F
HURON          SUNNY     83  55  38 SW3       30.12F
SISSETON         N/A     81  56  42 N8        30.09F
ABERDEEN       SUNNY     83  54  36 S9        30.11F
MITCHELL       SUNNY     84  57  39 SE7       30.13F
PIERRE         SUNNY     87  51  28 VRB6      30.12F
MOBRIDGE       SUNNY     89  54  30 W9        30.10F
RAPID CITY     SUNNY     84  53  34 NE7       30.21F
$$

  *****  SOME WEATHER IN NEARBY STATES *****

CITY           SKY/WX    TMP DP  RH WIND       PRES   REMARKS
GLASGOW MT     SUNNY     88  41  19 S10       30.10F
GREAT FALLS MT SUNNY     87  33  14 MISG      30.18F
CHEYENNE WY    MOSUNNY   84  49  29 S18G25    30.35F
SCOTTSBLUFF NE SUNNY     87  64  46 E9        30.22F
OMAHA NE       MOSUNNY   91  73  55 NW8       30.09F HX  99
DES MOINES IA  MOSUNNY   89  61  38 N5        30.08F
DAVENPORT IA   SUNNY     85  65  51 W13G18    30.05F
CHICAGO IL     MOSUNNY   86  52  30 W17G31    29.96F
EAU CLAIRE WI  MOSUNNY   80  51  36 NW17G28   30.00F
LA CROSSE WI   SUNNY     83  51  33 NW20      30.01F
$$

  *****  SOME NATIONAL WEATHER *****

CITY           SKY/WX    TMP DP  RH WIND       PRES   REMARKS
LA GUARDIA NY  MOSUNNY   89  54  30 NW13G18   29.82F
RALEIGH NC     MOSUNNY   89  63  41 NE7       29.95F HX  90
ATLANTA GA     MOSUNNY   89  71  55 NE3       29.96F HX  95
NEW ORLEANS LA MOSUNNY   92  70  48 N9        29.93F HX  97
OKLAHOMA CITY  PTSUNNY   88  72  58 MISG      30.13F HX  94
ALBUQUERQUE NM PTSUNNY   81  59  47 E7        30.33F
SALT LAKE CITY MOSUNNY   88  33  14 N8        30.22F
LOS ANGELES CA PTSUNNY   75  66  73 W7        30.03F
BOISE ID       SUNNY     91  37  15 VRB3      30.16F
SEATTLE WA     MOSUNNY   85  44  23 N7        30.09F
$$

*** WEATHER ACROSS MANITOBA...SASKATCHEWAN AND ONTARIO ***
                ***ONTARIO***

CITY           SKY/WX    TMP DP  RH WIND       PRES   REMARKS
GERALDTON      PTSUNNY   68  57  68 W7G20     29.72F
THUNDER BAY    LGT RAIN  72  54  53 W18G28    29.82S
SIOUX LOOKOUT  PTSUNNY   70  55  60 NW12G21   29.83F
TORONTO        MOSUNNY   86  55  35 W18G30    29.79F
BIG TROUT LK   PTSUNNY   66  50  55 NW15G25   29.65S
PICKLE LAKE    LGT RAIN  61  54  77 NW8G23    29.74R
DRYDEN         MOSUNNY   66  59  77 W15G22    29.88F
KENORA         PTSUNNY   70  55  60 NW13G20   29.92F
$$
                *** MANITOBA***

CITY           SKY/WX    TMP DP  RH WIND       PRES   REMARKS
BRANDON        MOSUNNY   77  50  38 NW16G24   30.06F
DAUPHIN        PTSUNNY   75  54  46 NW13G21   30.00F
ISLAND LAKE    PTSUNNY   70  54  56 NW15G21   29.78F
PILOT MOUND      N/A     73  50  43 NW14G21     N/A
THE PAS        LGT RAIN  64  55  72 NW10G22   29.94F
THOMPSON       LGT RAIN  68  55  64 W10G18    29.80F
WINNIPEG       MOSUNNY   75  54  46 NW17G31   29.98F
LYNN LAKE      MOSUNNY   68  54  60 NW12G21   29.86F
CHURCHILL      PTSUNNY   59  50  72 N16       29.67S
GILLAM         PTSUNNY   66  48  52 NW20G29   29.73F
$$
                ***SASKATCHEWAN***

CITY           SKY/WX    TMP DP  RH WIND       PRES   REMARKS
ESTEVAN        NOT AVBL
KINDERSLEY     SUNNY     79  45  29 S5        30.11F
LLOYDMINSTER   MOSUNNY   77  46  33 SW3       30.10F
PRINCE ALBERT  NOT AVBL
REGINA         MOSUNNY   77  46  33 SW2       30.13F



USA.gov is the U.S. government's official web portal to all federal, state and local government web resources and services.